FENGYUN 1C DEB

Satellite information

Favourite Embed

Satellite Type and Status

DEBRISIN ORBIT

Key statistics

Satellite FENGYUN 1C DEB at a glance.

Uptime

9497

Days in orbit

Revolutions

≈ 14.0

Per day

Orbit

SSO

Sun Synchronous Orbit

Inclination

98.6

Latest

Satellite identification and parameters

Extended collection of information and parameters for FENGYUN 1C DEB.

Object identification

Identified? True

Debris? True

Object name: FENGYUN 1C DEB

International designator: 1999-025DGN

Object number (NORAD): 33701

Object ID (CCSDS): 33701

Country: PEOPLES REPUBLIC OF CHINA (PRC)

Current information (Y/N): Y

RCS size: SMALL

Orbital parameters

Period: 102.783 minutes

Inclination: 98.6438 deg

SMA: 7268.46 km

Apoapsis: 991.438 km

Periapsis: 789.211 km

RAAN: 94.8422 deg

Eccentricy: 0.0139113

Argument of periapsis: 77.9852 deg

Mean anomaly: 283.6867 deg

Mean motion: 14.01003404 rev/day

Mean motion (dot): 0.00003627 rev/day2

B* drag term: 0.0022501 1/REarth

Two-line elements (TLE)

Creation date: May 10, 2025, 2:32 a.m.

Reference frame: TEME

Reference center: EARTH

Epoch: May 9, 2025, 8:11 a.m. UTC

TLE line 0: 0 FENGYUN 1C DEB

TLE line 1: 1 33701U 99025DGN 25129.34130625 .00003627 00000-0 22501-2 0 9992

TLE line 2: 2 33701 98.6438 94.8422 0139113 77.9852 283.6867 14.01003404874601

Live tracking on map

Real-time ground track for satellite FENGYUN 1C DEB.

In-orbit conjunctions

A list of the most updated potential collisions computed for object FENGYUN 1C DEB.

Target Orbit TCA Probability of collision Miss distance Type
CZ-6A DEB LEO 2025-01-12 09:32:32 0.0002076573 645.0 (m) DEBRIS
SL-8 R/B LEO 2024-11-10 15:13:31 0.0001384424 100.0 (m) ROCKET BODY
TATIANA LEO 2024-09-16 12:24:45 0.0001168815 706.0 (m) PAYLOAD

Associated space launch

Chinese polar orbiting meteorological satellite

FENGYUN 1C DEB was lifted into orbit during the mission ‘Long March 4B | Feng Yun 1C’, on board a Long March 4B space rocket.

The launch took place on May 10, 1999, 1:33 a.m. from Launch Complex 7.

For more information about the launch, click the button.

Launch to space Long March 4B | Feng Yun 1C
Long March 4B | Feng Yun 1C

Agency: N/A

Status: Launch Successful

Launch date: May 10, 1999, 1:33 a.m. UTC

Rocket: Long March 4B

Launch pad: Launch Complex 7

Location: Taiyuan Satellite Launch Center, People's Republic of China

...

Latest news about this satellite

There are no fresh news available about this satellite. Check back as we update our databases every day.


Newsletter sign-up

Weekly statistics, charts and insights to help you stay on top of the space industry.